SL-8 DEB, 2647

Orbit data source: Space-Track

SL-8 DEB, 2647 is space debris in LEO originally from a launch on Sat, 18 Sep 1965 UTC launched from the Tyuratam Missile And Space Complex (TTMTR). Debris objects in space refer to the collection of defunct objects orbiting the Earth. Examples of debris include non-operational satellites, rocket bodies, and fragments generated from explosions, collisions, or faulty payload assembly.

Loading next visibility...
Identifier
2647, 1965-073L
Orbit
LEO
Country
Flag of CISCIS
Related business
Manufacturer
Unknown
Mission
Spacecraft
Bus & Motor
Unknown
Mass
Unknown
Launch date (UTC)
1965-09-18 (60 years ago)
Launch vehicle
Unknown
Launch site
Tyuratam Missile And Space Complex (TTMTR)
Object type
Payload
Rocket body
Debris
Shape & HBR
Unknown shape, 0.1 m
Radar Cross Section
Small (<0.1 m²)

Expand to show TLE details & history
Last TLE update: 1 day ago

TLE from 1 day ago
0 SL-8 DEB
1 02647U 65073L   25302.77975461  .00000046  00000-0  93974-3 0  9993
2 02647  56.0636  83.4015 0189917 118.9494  23.1373 12.43665875 87965
Epoch: 2025-10-29T18:42Z
TLE epoch observation values (Epoch: 2025-10-29T18:42:50.798Z)
Latitude
30.06252°
Longitude
-78.45916°
Altitude
1,356.081 km
Speed
7.246 km/s
True Right ascension
16h 02m 24s
True Declination
29° 55' 31"
Sunlit
Object was in daylight at epoch
Visualization orbit readout
Latitude
Unknown
Longitude
Unknown
Altitude
Unknown
Speed
Unknown
Apparent Right ascension
Unknown
Apparent Declination
Unknown
Sunlit
N/A
Visualization observer readout
Local Sidereal Time
14:22:27
Azimuth
Unknown
Elevation
Unknown
Doppler factor
Unknown
Orbital elements
Apogee altitude
1,640.371 km
Perigee altitude
1,341.477 km
Semi-major axis
7,869.061 km
Eccentricity
0.01899
Inclination
56.0636°
RAAN
83.4015°
Arg. of periapsis
118.9494°
True anomaly
24.01147°
Mean anomaly
23.1373°
Eccentric anomaly
23.57246°
Mean motion
3.10927 °/min
Orbital period
115.78 mins
BSTAR
0.00093974
Loading maneuver chart data...
Computing Atmospheric mass density...
Loading historical data...
Loading historical data...
Loading historical data...
Loading historical data...
Loading historical data...
Loading historical data...
Loading historical data...

Documentation

Showing up to 5 results
|